Regional Weather Roundup
Issued by NWS

Home | Current Version | Previous Version | Graphics & Text | Print | Product List | Glossary On
Versions: 1 2 3 4 5 6 7 8 9 10 11 12 13 14 15 16 17 18 19 20 21 22 23 24 25 26 27 28 29 30 31 32 33 34 35 36 37 38 39 40 41 42 43 44 45 46 47 48 49 50
000
ASUS45 KABQ 301001
RWRNM
NEW MEXICO REGIONAL WEATHER ROUNDUP
NATIONAL WEATHER SERVICE ALBUQUERQUE NM
400 AM MDT SAT MAY 30 2015

NOTE: "FAIR" MEANS FEW OR NO CLOUDS BELOW 12,000 FEET AGL WITH NO
       SIGNIFICANT WEATHER OR OBSTRUCTIONS TO VISION.

      THIS PRODUCT IS RELEASED AS TWO VERSIONS.  ONE VERSION NEAR
      THE TOP OF THE HOUR CONTAINING PRELIMINARY DATA FROM ALBUQUERQUE
      AND OTHER STATIONS.  A FINAL VERSION WITH ADDITIONAL DATA IS
      ISSUED ABOUT 10 MINUTES AFTER THE HOUR.

NMZ501-503-504-510>518-301100-
NORTHWEST PLATEAU/NORTHCENTRAL MOUNTAINS

CITY           SKY/WX    TMP DP  RH WIND       PRES   REMARKS
FARMINGTON     CLEAR     44  29  55 N5        30.21R
SANTA FE       CLEAR     53  42  66 S13       30.29R
TAOS           CLEAR     48  32  53 E9        30.33R

$$
NMZ402-403-502-505>509-301100-
WESTCENTRAL MOUNTAINS/SOUTHWEST MOUNTAINS

CITY           SKY/WX    TMP DP  RH WIND       PRES   REMARKS
GALLUP         CLEAR     45  29  53 NE6       30.27S
GRANTS         PTCLDY    43  30  61 NW7       30.31R
SILVER CITY      N/A     59  25  27 W8        30.14S

$$
NMZ407-409-411-412-301100-
SOUTHERN DESERTS

CITY           SKY/WX    TMP DP  RH WIND       PRES   REMARKS
LORDSBURG      FAIR      61  19  20 SE3       30.07S
DEMING         CLEAR     76  30  18 NE18      30.04S
ALAMOGORDO     CLEAR     64  36  34 SE6       30.07S
T OR C         CLEAR     65  46  50 N20G31    30.13S

$$
NMZ519>523-301100-
CENTRAL VALLEYS/CENTRAL HIGHLANDS

CITY           SKY/WX    TMP DP  RH WIND       PRES   REMARKS
ALBUQUERQUE    PTCLDY    60  44  55 E23G35    30.22R
DOUBLE EAGLE   CLEAR     53  43  70 SE6       30.27R
MORIARTY ARPT  PTSUNNY   53  44  73 E8        30.34R
CLINES CORNERS PTCLDY    49  44  83 E13       30.33S
BELEN          FAIR      55  42  61 NW13      30.21S
SOCORRO        NOT AVBL

$$
NMZ524>526-539-540-301100-
SOUTHCENTRAL MOUNTAINS

CITY           SKY/WX    TMP DP  RH WIND       PRES   REMARKS
RUIDOSO        NOT AVBL

$$
NMZ527>531-301100-
NORTHEAST HIGHLANDS/NORTHEAST PLAINS

CITY           SKY/WX    TMP DP  RH WIND       PRES   REMARKS
LAS VEGAS      MOCLDY    45  42  89 NE5       30.36S
RATON          CLOUDY    50  44  80 N8        30.32F
CLAYTON        PTCLDY    51  48  89 N12       30.28R

$$
NMZ532>537-301100-
EASTCENTRAL PLAINS

CITY           SKY/WX    TMP DP  RH WIND       PRES   REMARKS
TUCUMCARI      CLOUDY    54  50  86 NE7       30.24R
CANNON AFB     NOT AVBL
CLOVIS AIRPORT CLOUDY    55  52  88 NE12      30.23R

$$
NMZ028-029-538-301100-
SOUTHEAST PLAINS

CITY           SKY/WX    TMP DP  RH WIND       PRES   REMARKS
ROSWELL        CLOUDY    60  55  83 N14       30.15F
ARTESIA        CLOUDY    59  57  94 NW8       30.17R
CARLSBAD       LGT RAIN  58  56  93 E13G22    30.14S
HOBBS          TSTM      59  55  88 N16       30.21R


$$


USA.gov is the U.S. government's official web portal to all federal, state and local government web resources and services.